Weather History for Chamberlain, SD

Change the Weather History Date:

Monday, October 1, 2012

  Actual Average Record
Temperature  
Mean Temperature 58 °F -  
Max Temperature 71 °F 66 °F 88 °F (2005)
Min Temperature 46 °F 40 °F 25 °F (1999)
Degree Days  
Heating Degree Days 6    
Growing Degree Days 8 (Base 50)    
Moisture  
Dew Point 37 °F    
Average Humidity 46    
Maximum Humidity 77    
Minimum Humidity 19    
Precipitation  
Precipitation 0.01 in - - ()
Sea Level Pressure  
Sea Level Pressure 30.09 in    
Wind  
Wind Speed 12 mph (NNW)    
Max Wind Speed 17 mph    
Max Gust Speed 25 mph    
Averages and records for this station are not official NWS values.
T = Trace of Precipitation, MM = Missing Value Source: NWS Daily Summary

Daily Weather History Graph

Daily Weather History Graph

Search for Another Location

Airport:

Trip Planner

Search our weather history database for the weather conditions in past years. The results will help you decide how hot, cold, wet, or windy it might be!

Date:

Astronomy

Oct. 01, 2012 Rise Set
Actual Time 7:35 AM CDT 7:17 PM CDT
Civil Twilight 7:06 AM CDT 7:45 PM CDT
Nautical Twilight 6:33 AM CDT 8:19 PM CDT
Astronomical Twilight 5:59 AM CDT 8:52 PM CDT
Moon 7:49 PM CDT (10/1) 9:11 AM CDT (10/1)
Length of Visible Light 12h 39m
Length of Day
11h 41m
Full, 98% of the Moon is Illuminated
Oct 1
Full
Oct 8
Last Quarter
Oct 15
New
Oct 21
First Quarter
Oct 29
Full

Hourly Weather History & Observations

Time (CDT) Temp. Windchill Dew Point Humidity Pressure Visibility Wind Dir Wind Speed Gust Speed Precip Events Conditions
12:52 AM 66.0 °F - 48.0 °F 52% 29.99 in - WNW 11.5 mph - N/A   Unknown
1:52 AM 61.0 °F - 51.1 °F 70% 30.00 in - WNW 8.1 mph - N/A   Unknown
2:52 AM 63.0 °F - 41.0 °F 45% 30.02 in - NNE 16.1 mph 24.2 mph N/A   Unknown
3:52 AM 61.0 °F - 42.1 °F 50% 30.04 in - North 8.1 mph - N/A   Unknown
4:52 AM 55.9 °F - 46.9 °F 72% 30.07 in - NW 6.9 mph - 0.01 in   Unknown
5:52 AM 57.0 °F - 48.0 °F 72% 30.09 in - NNW 12.7 mph - N/A   Unknown
6:52 AM 57.0 °F - 46.9 °F 69% 30.10 in - North 13.8 mph 21.9 mph N/A   Unknown
7:52 AM 55.0 °F - 48.0 °F 77% 30.13 in - NNW 13.8 mph 21.9 mph N/A   Unknown
8:52 AM 55.0 °F - 46.0 °F 72% 30.16 in - NNW 16.1 mph 23.0 mph N/A   Unknown
9:52 AM 57.9 °F - 43.0 °F 58% 30.16 in - NNW 16.1 mph 23.0 mph N/A   Unknown
10:52 AM 60.1 °F - 42.1 °F 51% 30.17 in - NNW 16.1 mph 24.2 mph N/A   Unknown
11:52 AM 63.0 °F - 39.9 °F 43% 30.17 in - North 16.1 mph 24.2 mph N/A   Unknown
12:52 PM 66.9 °F - 37.0 °F 33% 30.14 in - NNW 16.1 mph 23.0 mph N/A   Unknown
1:52 PM 69.1 °F - 32.0 °F 25% 30.13 in - North 16.1 mph 23.0 mph N/A   Unknown
2:52 PM 71.1 °F - 30.0 °F 22% 30.10 in - North 17.3 mph 24.2 mph N/A   Unknown
3:52 PM 70.0 °F - 27.0 °F 20% 30.09 in - North 15.0 mph 25.3 mph N/A   Unknown
4:52 PM 70.0 °F - 27.0 °F 20% 30.09 in - North 12.7 mph 20.7 mph N/A   Unknown
5:52 PM 69.1 °F - 25.0 °F 19% 30.08 in - NNW 11.5 mph - N/A   Unknown
6:52 PM 64.9 °F - 28.0 °F 25% 30.08 in - North 6.9 mph - N/A   Unknown
7:52 PM 61.0 °F - 30.0 °F 31% 30.08 in - North 3.5 mph - N/A   Unknown
8:52 PM 55.9 °F - 30.0 °F 37% 30.09 in - NW 3.5 mph - N/A   Unknown
9:52 PM 54.0 °F - 28.0 °F 37% 30.08 in - NNW 3.5 mph - N/A   Unknown
10:52 PM 46.9 °F - 28.9 °F 50% 30.07 in - West 8.1 mph - N/A   Unknown
11:52 PM 46.0 °F 44.8 °F 32.0 °F 58% 30.05 in - WSW 3.5 mph - N/A   Unknown